www.pogodaiklimat.ru

АРХИВ ПОГОДЫ в Краснодаре

Время (UTC), дата Ветер
(напр.,м/с)
 
Видим.   Явления Облачность Т
(С)
Тd
(С)
f
(%)
Тe
(С)
Тes
(С)
Комфортность P
(гПа)
Po
(гПа)
Тmin
(С)
Tmax
(С)
R
(мм)
S
(см)
18 18.09 СВ 1 4000 м слабый ливневой дождь 10/10 300 м
[Cb cap]
+16.6 +14.7 89 +17 +17 по сезону 1014.5 1010.9
21 18.09 В 2 4000 м слабый ливневой дождь 10/10 300 м
[Cb cap]
+15.1 +13.8 92 +15 +15 по сезону 1013.1 1009.5
00 19.09 С 1 10 км в посл. час ливневой дождь 10/10 300 м
[Cb cap]
+13.5 +12.2 92 +14 +14 по сезону 1013.5 1009.9
03 19.09 В 1 4000 м слабый ливневой дождь 10/10 200 м
[Cb cap]
+12.2 +11.1 93 +12 +12 прохладно 1013.9 1010.2 +12.2 23
06 19.09 СВ 1 10 км {ливн. осадки} 10/10 200 м
[Cb cap]
+12.7 +11.5 92 +13 +13 прохладно 1014.5 1010.9 +11.9
09 19.09 СВ 1 10 км 10/10 300 м
[St]
+15.2 +12.4 83 +16 +16 прохладно 1014.6 1011.1
12 19.09 СВ 1 10 км 9/9 300 м
[Cb cap]
+17.2 +12.4 73 +18 +19 холодно 1013.3 1009.8
15 19.09 В 3 10 км 10/10 300 м
[St]
+15.9 +12.6 81 +15 +15 холодно 1012.7 1009.1 +17.3 6
18 19.09 В 2 10 км 10/10 300 м
[St]
+15.6 +13.2 86 +15 +15 прохладно 1011.5 1007.9
21 19.09 В 2 10 км 10/0
[As trans]
+14.5 +12.7 89 +14 +14 по сезону 1010.0 1006.4
00 20.09 СВ 1 1000 м дымка 10/10 200 м
[St]
+14.3 +13.3 94 +15 +15 тепло 1008.6 1005.0
03 20.09 В 3 500 м туман ?/? +14.3 +13.4 94 +13 +13 по сезону 1006.9 1003.3
06 20.09 ЮВ 1 2000 м дымка {туман} 9/8 200 м
[St Ac trans]
+16.2 +13.7 85 +17 +18 по сезону 1005.0 1001.4
09 20.09 штиль 0 10 км {дождь} 9/8 1000 м
[Sc Ac trans]
+22.0 +14.1 61 +25 +27 комфорт 1003.6 1000.1
12 20.09 Ю 4-10
{12}
2000 м {дождь} 8/4 1000 м
[Sc Ac trans Ci fib]
+28.2 +15.6 46 +31 +33 душно 1002.5 999.1
15 20.09 Ю 2
{11}
10 км 10/3 1000 м
[Sc Ac trans Ci fib]
+25.3 +17.3 61 +29 +29 душно 1002.5 999.0 +28.2
18 20.09 Ю 3 10 км 10/8 1000 м
[Sc Ac und]
+23.0 +17.4 71 +28 +28 душно 1003.2 999.7
21 20.09 Ю 2 10 км 10/3 1000 м
[Sc Ac und]
+20.8 +15.2 70 +24 +24 комфорт 1003.9 1000.4
00 21.09 З 1 10 км 10/6 1000 м
[Cb cap Ac und]
+19.7 +16.1 80 +23 +23 комфорт 1002.9 999.4
03 21.09 ЮЗ 1 10 км в посл. час ливневой дождь 10/5 1000 м
[Cb cap Ac trans Ci fib]
+17.7 +16.4 92 +19 +19 тепло 1003.0 999.4 +17.6 5
06 21.09 З 2 10 км {ливн. осадки} 10/10 1000 м
[Sc diur, vesp]
+14.8 +11.4 80 +14 +14 прохладно 1005.1 1001.6 +14.8
09 21.09 З 4 10 км 9/9 600 м
[Cb cap]
+16.5 +10.1 66 +16 +17 прохладно 1007.4 1003.9
12 21.09 З 3 10 км 10/10 600 м
[Frnb]
+15.9 +10.4 70 +15 +15 очень
холодно
1009.6 1006.0
15 21.09 З 2 10 км 9/8 1000 м
[Sc diur, vesp Ac trans Ci fib]
+16.0 +9.9 67 +16 +16 прохладно 1011.2 1007.6 +18.1
18 21.09 З 2 4000 м слабая морось 10/10 300 м
[St]
+15.2 +10.1 72 +15 +15 по сезону 1013.1 1009.5
21 21.09 З 2 10 км {морось} 10/10 300 м
[St]
+14.5 +8.6 68 +14 +14 по сезону 1013.7 1010.1
00 22.09 ЮЗ 1 10 км {морось} 8/8 1000 м
[Sc]
+13.9 +8.3 69 +14 +14 по сезону 1014.3 1010.7
03 22.09 ЮЗ 1 10 км 10/10 1000 м
[Sc]
+13.6 +7.4 66 +14 +14 по сезону 1014.8 1011.2 +13.6
06 22.09 ЮЗ 2 10 км 10/8 1000 м
[Sc Ac und]
+14.1 +6.3 59 +14 +14 прохладно 1016.2 1012.6
09 22.09 Ю 1 10 км 8/5 1000 м
[Sc Ac trans]
+15.8 +6.5 54 +17 +20 прохладно 1017.0 1013.4
12 22.09 Ю 1 10 км 10/3 1000 м
[Sc Ci fib]
+18.0 +5.6 44 +19 +23 прохладно 1016.9 1013.3
15 22.09 ЮВ 1 10 км 10/6 1000 м
[Sc Ac trans Ci fib]
+15.4 +6.5 55 +16 +16 прохладно 1018.0 1014.4 +19.4
18 22.09 В 1 10 км 5/3 1000 м
[Sc Ac trans]
+13.2 +8.7 74 +13 +13 прохладно 1018.3 1014.7
21 22.09 штиль 0 4000 м дымка 10/0
[Ci fib]
+11.1 +9.4 89 +10 +10 холодно 1017.8 1014.1
00 23.09 В 1 4000 м дымка 10/0
[Ac trans Cc]
+11.4 +9.7 89 +11 +11 по сезону 1016.5 1012.9
03 23.09 СВ 1 10 км 9/9 1000 м
[Sc]
+10.9 +8.8 87 +11 +11 прохладно 1015.8 1012.2 +10.7
06 23.09 СВ 2 10 км 10/10 1000 м
[Sc]
+12.8 +8.8 77 +12 +12 прохладно 1015.3 1011.7
09 23.09 С 1 4000 м слабый ливневой дождь 10/10 1000 м
[Cb cap]
+12.3 +9.8 85 +12 +12 очень
холодно
1016.0 1012.4
12 23.09 С 1 4000 м слабый ливневой дождь 10/10 300 м
[Cb cap]
+11.8 +10.0 89 +12 +12 очень
холодно
1016.4 1012.8
15 23.09 СЗ 2 4000 м слабый ливневой дождь 10/10 200 м
[Cb cap]
+11.1 +9.5 90 +10 +10 очень
холодно
1018.3 1014.6 +13.7 13
18 23.09 С 2 4000 м слабый ливневой дождь 10/10 300 м
[Cb cap]
+10.6 +9.2 91 +9 +9 очень
холодно
1020.1 1016.4
21 23.09 С 1 10 км {ливн. осадки} 9/9 300 м
[Cb cap]
+10.1 +8.8 92 +10 +10 холодно 1020.8 1017.1
00 24.09 10 км {ливн. осадки} н/о +8.6 +7.6 93 +8 +8 холодно 1020.9 1017.2
03 24.09 З 1 2000 м дымка 9/9 200 м
[St]
+9.4 +8.4 93 +9 +9 холодно 1021.5 1017.8 +8.5 4
06 24.09 Ю 1 1000 м в посл. час туман 10/8 200 м
[St Ci fib]
+11.4 +8.9 85 +11 +12 холодно 1022.1 1018.4
09 24.09 ЮВ 1 10 км 10/8 600 м
[Cu hum Ac trans Ci fib]
+15.6 +8.4 62 +16 +18 прохладно 1021.9 1018.3
12 24.09 З 1 10 км 9/8 1000 м
[Cb cap Ci fib]
+18.1 +7.1 49 +19 +21 прохладно 1021.2 1017.6
15 24.09 З 1 10 км 9/6 600 м
[Cb cap Ac trans Cc]
+14.6 +7.4 62 +15 +15 холодно 1021.1 1017.5 +18.9
18 24.09 ЮЗ 1 10 км 1/0
[Ac trans]
+12.3 +7.8 74 +12 +12 холодно 1021.6 1017.9
21 24.09 ЮЗ 1 10 км 9/4 1000 м
[Sc Ac trans]
+11.7 +8.6 81 +12 +12 прохладно 1020.8 1017.2
00 25.09 ЮЗ 1 10 км 10/8 1000 м
[Sc Ac und]
+11.0 +7.4 78 +11 +11 по сезону 1020.0 1016.4
03 25.09 ЮЗ 1 10 км 9/9 600 м
[Sc]
+10.3 +7.5 83 +10 +10 прохладно 1019.8 1016.1 +10.3
06 25.09 З 1 10 км 9/9 1000 м
[Sc Ac trans]
+12.3 +7.3 72 +12 +13 прохладно 1019.9 1016.2 +10.1
09 25.09 ЮЗ 3 10 км 8/3 1000 м
[Sc Ci fib]
+16.9 +6.4 50 +17 +22 прохладно 1018.7 1015.1
12 25.09 З 1 10 км {ливн. осадки} 9/8 600 м
[Cb cap Ac trans]
+15.9 +8.4 61 +17 +18 холодно 1017.7 1014.1
15 25.09 З 1 10 км 4/4 1000 м
[Sc]
+15.9 +5.9 51 +17 +17 прохладно 1017.6 1014.0 +18.3 0.8

 

Местоположение метеостанции Краснодар (Краснодарский край, Россия): широта 45.05 долгота 39.03 высота над уровнем моря 29 м.

В архиве по умолчанию представлена погода в Краснодаре за последнюю неделю. Архивные данные за месяц целиком и за предыдущие месяцы, начиная с января 2011 года, Вы можете получить, выбрав интересующий диапазон дат из раскрывающегося списка и нажав кнопку "Ввод!".

Внимание! Время в таблицах - всемирное. Для получения местного времени необходимо прибавить поправку, которая в Краснодаре равна 3 ч.

Ветер - указаны скорость ветра в м/с - средняя за 10 мин, порывы в срок и между сроками (в фигурных скобках) и направление, откуда дует ветер: С - северный, СВ - северо-восточный, В - восточный, ЮВ - юго-восточный, Ю - южный, ЮЗ - юго-западный, З - западный, СЗ - северо-западный.
Видимость - горизонтальная дальность видимости в метрах или километрах. При видимости от 1 до 10 км при отсутствии осадков обычно наблюдается дымка, при ухудшении видимости до 1 км и менее - туман. В сухую погоду видимость может ухудшаться дымом, пылью или мглою.
Явления - указаны атмосферные явления, наблюдавшиеся в срок или в последний час перед сроком; фигурными скобками обозначены явления, наблюдавшиеся между сроками (за 1-3 часа до срока); квадратными скобками обозначены град или гололедные отложения с указанием их диаметра в мм.
Облачность - указаны через наклонную черту общая и нижняя облачность в баллах и высота нижней границы облаков в метрах; квадратными скобками обозначены формы облаков: Ci - перистые, Cs - перисто-слоистые, Cc - перисто-кучевые, Ac - высококучевые, As - высокослоистые, Sc - слоисто-кучевые, Ns - слоисто-дождевые, Cu - кучевые, Cb - кучево-дождевые. Подробнее классификацию облаков см. в Атласе облаков (PDF).
T - Температура воздуха - температура, измеренная на высоте 2 м над землей.
Td - Температура точки росы - температура, при понижении до которой содержащийся в воздухе водяной пар достигнет насыщения.
f - Относительная влажность воздуха - влажноcть воздуха, измеренная на высоте 2 м над землей.
Te - Эффективная температура - температура, которую ощущает одетый по сезону человек в тени. Характеристика душности погоды. При расчете учитывается влияние влажности воздуха и скорости ветра на теплоощущения человека.
Tes - Эффективная температура на солнце - температура, которую ощущает человек, с поправкой на солнечный нагрев. Характеристика знойности погоды. Зависит от высоты солнца над горизонтом, облачности и скорости ветра. Ночью, в пасмурную погоду, а также при ветре 12 м/с и более поправка равна нулю.
P - Атмосферное давление - приведенное к уровню моря атмосферное давление.
Po - Атмосферное давление - измеренное на уровне метеостанции атмосферное давление.
Tmin - Минимальная температура - минимум температуры воздуха на высоте 2 м над землей.
Tmax - Максимальная температура - максимум температуры воздуха на высоте 2 м над землей.
R - Количество осадков - Количество выпавших осадков, мм. При наведении курсора мыши на число - период времени, за который выпало указанное количество осадков.
S - Снежный покров - Высота снежного покрова, см. При наведении курсора мыши на число - состояние снежного покрова и степень покрытия местности в баллах.